Location: Hopville
(44.8032°N, 123.1329°W)
Time: 02:58:04
(UTC+00:00)

Cosmos 1602 Rocket - Pass Details

Date: 24 January 2021
Orbit: 604 x 632 km, 82.5° (Epoch: 26 February)

Event Time Altitude Azimuth Distance (km) Brightness Sun altitude
Exits shadow 13:29:26 - 356° (N) 2,433 6.5 -23.0°
Reaches altitude 10° 13:30:29 10° 359° (N) 2,016 6.1 -22.8°
Maximum altitude 13:34:54 59° 79° (E) 731 4.1 -22.0°
Drops below altitude 10° 13:39:18 10° 159° (SSE) 2,008 6.5 -21.2°
Sets 13:41:34 0° 163° (SSE) 2,912 7.3 -20.8°
